Location: Tel Aviv
(32.0670°N, 34.7670°E)
Time: 04:42:55
(UTC+03:00)

Vanguard 2 - Pass Details

Date: 23 January 2022
Orbit: 552 x 2935 km, 32.9° (Epoch: 25 May)

Event Time Altitude Azimuth Distance (km) Brightness Sun altitude
Rises 22:42:53 0° 272° (W) 4,969 11.9 -69.8°
Enters shadow 22:44:30 - 272° (W) 4,541 11.6 -70.0°
Reaches altitude 10° 22:45:40 10° 273° (W) 4,246 - -70.2°
Maximum altitude 22:58:19 87° 3° (N) 2,542 - -72.3°
Drops below altitude 10° 23:16:18 10° 95° (E) 5,765 - -74.8°
Sets 23:20:48 0° 96° (E) 6,759 - -75.3°
